| time (UTC) | temp C | wind direction | speed KPH | gust KPH | rain 1hr cm | rain 24hr cm | rain mn cm | humidity % | barometer mb |
| 20260509203505 | 22 | 258 | 27.4 | 45.1 | 0.00 | 0.00 | 0.00 | 100 | 1008.9 |
| 20260509203005 | 22 | 264 | 24.1 | 35.4 | 0.00 | 0.00 | 0.00 | 100 | 1008.8 |
| 20260509202505 | 22 | 257 | 25.7 | 35.4 | 0.00 | 0.00 | 0.00 | 100 | 1008.8 |
| 20260509201505 | 21 | 272 | 25.7 | 37.0 | 0.00 | 0.00 | 0.00 | 100 | 1009.0 |
| 20260509195004 | 19 | 265 | 16.1 | 27.4 | 0.00 | 0.00 | 0.00 | 100 | 1008.8 |
| 20260509194505 | 19 | 270 | 22.5 | 27.4 | 0.00 | 0.00 | 0.00 | 100 | 1008.8 |
| 20260509193005 | 20 | 261 | 22.5 | 32.2 | 0.00 | 0.00 | 0.00 | 100 | 1008.7 |
| 20260509192004 | 20 | 274 | 20.9 | 37.0 | 0.00 | 0.00 | 0.00 | 100 | 1008.7 |
| 20260509191005 | 21 | 277 | 24.1 | 40.2 | 0.00 | 0.00 | 0.00 | 100 | 1008.6 |
| 20260509190006 | 21 | 282 | 33.8 | 46.7 | 0.00 | 0.00 | 0.00 | 100 | 1008.4 |
| 20260509185005 | 21 | 305 | 32.2 | 41.8 | 0.00 | 0.00 | 0.00 | 100 | 1008.1 |
| 20260509184505 | 21 | 277 | 38.6 | 49.9 | 0.00 | 0.00 | 0.00 | 100 | 1008.1 |
| 20260509182505 | 21 | 299 | 25.7 | 46.7 | 0.00 | 0.00 | 0.00 | 100 | 1008.1 |
| 20260509182005 | 21 | 292 | 25.7 | 41.8 | 0.00 | 0.00 | 0.00 | 100 | 1008.0 |
| 20260509181505 | 21 | 293 | 27.4 | 37.0 | 0.00 | 0.00 | 0.00 | 100 | 1007.8 |
| 20260509181005 | 22 | 282 | 27.4 | 45.1 | 0.00 | 0.00 | 0.00 | 100 | 1007.7 |
| 20260509180005 | 22 | 298 | 25.7 | 33.8 | 0.00 | 0.00 | 0.00 | 100 | 1007.7 |
| 20260509175505 | 21 | 295 | 25.7 | 35.4 | 0.00 | 0.00 | 0.00 | 100 | 1007.7 |
| 20260509175004 | 21 | 283 | 24.1 | 33.8 | 0.00 | 0.00 | 0.00 | 100 | 1007.6 |
| 20260509174504 | 21 | 300 | 27.4 | 37.0 | 0.00 | 0.00 | 0.00 | 100 | 1007.8 |
| 20260509174004 | 21 | 270 | 20.9 | 32.2 | 0.00 | 0.00 | 0.00 | 100 | 1007.6 |
| 20260509173505 | 21 | 276 | 24.1 | 32.2 | 0.00 | 0.00 | 0.00 | 100 | 1007.6 |
| 20260509171504 | 22 | 270 | 29.0 | 46.7 | 0.00 | 0.00 | 0.00 | 100 | 1007.8 |
| 20260509171004 | 22 | 292 | 27.4 | 45.1 | 0.00 | 0.00 | 0.00 | 100 | 1007.8 |
| 20260509170504 | 22 | 287 | 27.4 | 45.1 | 0.00 | 0.00 | 0.00 | 100 | 1007.8 |
| 20260509170004 | 22 | 282 | 22.5 | 45.1 | 0.00 | 0.00 | 0.00 | 100 | 1007.8 |
| 20260509165504 | 23 | 271 | 33.8 | 49.9 | 0.00 | 0.00 | 0.00 | 100 | 1007.8 |
| 20260509165005 | 23 | 274 | 33.8 | 51.5 | 0.00 | 0.00 | 0.00 | 100 | 1007.8 |
| 20260509164505 | 23 | 291 | 32.2 | 40.2 | 0.00 | 0.00 | 0.00 | 100 | 1007.7 |
| 20260509164004 | 22 | 284 | 29.0 | 45.1 | 0.00 | 0.00 | 0.00 | 100 | 1007.8 |
| 20260509163504 | 22 | 250 | 25.7 | 35.4 | 0.00 | 0.00 | 0.00 | 100 | 1007.8 |
| 20260509163005 | 22 | 250 | 25.7 | 37.0 | 0.00 | 0.00 | 0.00 | 100 | 1007.8 |
| 20260509162005 | 22 | 275 | 27.4 | 38.6 | 0.00 | 0.00 | 0.00 | 100 | 1007.8 |
| 20260509161504 | 22 | 268 | 24.1 | 32.2 | 0.00 | 0.00 | 0.00 | 100 | 1007.8 |
| 20260509160505 | 21 | 279 | 25.7 | 38.6 | 0.00 | 0.00 | 0.00 | 100 | 1007.9 |
| 20260509160005 | 21 | 289 | 25.7 | 37.0 | 0.00 | 0.00 | 0.00 | 100 | 1008.0 |
| 20260509155504 | 22 | 286 | 35.4 | 45.1 | 0.00 | 0.00 | 0.00 | 100 | 1007.9 |
| 20260509154505 | 22 | 276 | 32.2 | 41.8 | 0.00 | 0.00 | 0.00 | 100 | 1008.0 |
| 20260509154005 | 21 | 289 | 30.6 | 56.3 | 0.00 | 0.00 | 0.00 | 100 | 1008.0 |
| 20260509153504 | 21 | 283 | 32.2 | 46.7 | 0.00 | 0.00 | 0.00 | 100 | 1008.0 |
| 20260509152005 | 21 | 272 | 32.2 | 45.1 | 0.00 | 0.00 | 0.00 | 100 | 1007.7 |
| 20260509151505 | 21 | 264 | 22.5 | 37.0 | 0.00 | 0.00 | 0.00 | 100 | 1007.6 |
| 20260509150505 | 21 | 255 | 17.7 | 29.0 | 0.00 | 0.00 | 0.00 | 100 | 1007.5 |
| 20260509145505 | 21 | 277 | 20.9 | 29.0 | 0.00 | 0.00 | 0.00 | 100 | 1007.3 |
| 20260509144005 | 20 | 265 | 17.7 | 25.7 | 0.00 | 0.00 | 0.00 | 100 | 1007.5 |
| 20260509143005 | 19 | 239 | 8.0 | 19.3 | 0.00 | 0.00 | 0.00 | 100 | 1007.5 |
| 20260509142004 | 18 | 273 | 11.3 | 16.1 | 0.00 | 0.00 | 0.00 | 100 | 1007.6 |
| 20260509141505 | 18 | 272 | 11.3 | 19.3 | 0.00 | 0.00 | 0.00 | 100 | 1007.6 |
| 20260509141004 | 18 | 256 | 8.0 | 12.9 | 0.00 | 0.00 | 0.00 | 100 | 1007.4 |
| 20260509134504 | 16 | 260 | 4.8 | 11.3 | 0.00 | 0.00 | 0.00 | 100 | 1007.7 |
| 20260509134004 | 15 | 248 | 3.2 | 8.0 | 0.00 | 0.00 | 0.00 | 100 | 1007.5 |
| 20260509132005 | 13 | 238 | 8.0 | 12.9 | 0.00 | 0.00 | 0.00 | 100 | 1007.2 |
| 20260509131004 | 13 | 217 | 4.8 | 8.0 | 0.00 | 0.00 | 0.00 | 100 | 1007.2 |
| 20260509130505 | 12 | 235 | 4.8 | 8.0 | 0.00 | 0.00 | 0.00 | 100 | 1007.1 |
| 20260509125004 | 11 | 211 | 8.0 | 8.0 | 0.00 | 0.00 | 0.00 | 100 | 1007.0 |
| 20260509124505 | 11 | 207 | 4.8 | 4.8 | 0.00 | 0.00 | 0.00 | 100 | 1007.0 |
| 20260509124005 | 11 | 188 | 4.8 | 8.0 | 0.00 | 0.00 | 0.00 | 100 | 1007.0 |
| 20260509122504 | 10 | 202 | 1.6 | 3.2 | 0.00 | 0.00 | 0.00 | 100 | 1007.0 |
| 20260509121004 | 9 | 211 | 1.6 | 1.6 | 0.00 | 0.00 | 0.00 | 100 | 1006.8 |
| 20260509120504 | 8 | 211 | 0.0 | 3.2 | 0.00 | 0.00 | 0.00 | 100 | 1006.8 |
| 20260509115504 | 8 | 211 | 0.0 | 3.2 | 0.00 | 0.00 | 0.00 | 100 | 1006.7 |
| 20260509115005 | 8 | 211 | 0.0 | 3.2 | 0.00 | 0.00 | 0.00 | 100 | 1006.7 |
| 20260509113504 | 8 | 198 | 1.6 | 3.2 | 0.00 | 0.00 | 0.00 | 100 | 1006.7 |
| 20260509112505 | 8 | 198 | 1.6 | 1.6 | 0.00 | 0.00 | 0.00 | 100 | 1006.5 |
| 20260509111504 | 8 | 198 | 1.6 | 3.2 | 0.00 | 0.00 | 0.00 | 100 | 1006.5 |
| 20260509110504 | 8 | 198 | 4.8 | 4.8 | 0.00 | 0.00 | 0.00 | 100 | 1006.3 |
| 20260509105004 | 8 | 232 | 3.2 | 3.2 | 0.00 | 0.00 | 0.00 | 100 | 1006.4 |
| 20260509104004 | 9 | 232 | 3.2 | 3.2 | 0.00 | 0.00 | 0.00 | 100 | 1006.3 |
| 20260509103503 | 9 | 242 | 3.2 | 3.2 | 0.00 | 0.00 | 0.00 | 100 | 1006.4 |
| 20260509103004 | 9 | 242 | 1.6 | 3.2 | 0.00 | 0.00 | 0.00 | 100 | 1006.4 |
| 20260509102504 | 9 | 242 | 1.6 | 3.2 | 0.00 | 0.00 | 0.00 | 100 | 1006.4 |
| 20260509102004 | 9 | 242 | 3.2 | 3.2 | 0.00 | 0.00 | 0.00 | 100 | 1006.4 |
| 20260509095504 | 10 | 232 | 3.2 | 4.8 | 0.00 | 0.00 | 0.00 | 100 | 1006.3 |
| 20260509094004 | 10 | 244 | 4.8 | 4.8 | 0.00 | 0.00 | 0.00 | 100 | 1006.3 |
| 20260509092504 | 10 | 236 | 4.8 | 8.0 | 0.00 | 0.00 | 0.00 | 100 | 1006.2 |
| 20260509091504 | 10 | 244 | 4.8 | 4.8 | 0.00 | 0.00 | 0.00 | 100 | 1006.6 |
| 20260509091004 | 10 | 236 | 4.8 | 4.8 | 0.00 | 0.00 | 0.00 | 100 | 1006.5 |
| 20260509090004 | 10 | 225 | 3.2 | 4.8 | 0.00 | 0.00 | 0.00 | 100 | 1006.5 |
| 20260509085504 | 10 | 244 | 3.2 | 4.8 | 0.00 | 0.00 | 0.00 | 100 | 1006.5 |
| 20260509084004 | 10 | 271 | 3.2 | 3.2 | 0.00 | 0.00 | 0.00 | 100 | 1006.2 |
| 20260509083504 | 10 | 270 | 1.6 | 4.8 | 0.00 | 0.00 | 0.00 | 100 | 1006.0 |
| 20260509082004 | 10 | 210 | 4.8 | 8.0 | 0.00 | 0.00 | 0.00 | 100 | 1006.0 |
| 20260509080004 | 10 | 199 | 4.8 | 4.8 | 0.00 | 0.00 | 0.00 | 100 | 1006.2 |
| 20260509075504 | 11 | 196 | 4.8 | 4.8 | 0.00 | 0.00 | 0.00 | 100 | 1006.3 |
| 20260509073004 | 11 | 195 | 1.6 | 3.2 | 0.00 | 0.00 | 0.00 | 100 | 1006.4 |
| 20260509065504 | 11 | 138 | 1.6 | 3.2 | 0.00 | 0.00 | 0.00 | 100 | 1006.7 |
| 20260509065004 | 12 | 197 | 0.0 | 4.8 | 0.00 | 0.00 | 0.00 | 100 | 1006.6 |
| 20260509064504 | 12 | 190 | 1.6 | 3.2 | 0.00 | 0.00 | 0.00 | 100 | 1006.7 |
| 20260509064004 | 12 | 215 | 0.0 | 4.8 | 0.00 | 0.00 | 0.00 | 100 | 1006.7 |
| 20260509063004 | 12 | 208 | 3.2 | 4.8 | 0.00 | 0.00 | 0.00 | 100 | 1006.8 |
| 20260509062503 | 12 | 203 | 4.8 | 9.7 | 0.00 | 0.00 | 0.00 | 100 | 1006.8 |
| 20260509060004 | 12 | 193 | 8.0 | 11.3 | 0.00 | 0.00 | 0.00 | 100 | 1006.7 |
| 20260509055004 | 12 | 211 | 4.8 | 12.9 | 0.00 | 0.00 | 0.00 | 100 | 1006.7 |
| 20260509054504 | 12 | 207 | 4.8 | 11.3 | 0.00 | 0.00 | 0.00 | 100 | 1006.7 |
| 20260509053503 | 12 | 199 | 8.0 | 14.5 | 0.00 | 0.00 | 0.00 | 100 | 1006.7 |
| 20260509053004 | 12 | 204 | 9.7 | 14.5 | 0.00 | 0.00 | 0.00 | 100 | 1006.7 |
| 20260509052004 | 13 | 196 | 9.7 | 19.3 | 0.00 | 0.00 | 0.00 | 100 | 1006.8 |
| 20260509051504 | 13 | 194 | 11.3 | 16.1 | 0.00 | 0.00 | 0.00 | 100 | 1006.7 |
| 20260509051003 | 13 | 187 | 9.7 | 14.5 | 0.00 | 0.00 | 0.00 | 100 | 1006.9 |
| 20260509050003 | 13 | 181 | 9.7 | 19.3 | 0.00 | 0.00 | 0.00 | 100 | 1007.0 |
| 20260509045004 | 13 | 179 | 9.7 | 19.3 | 0.00 | 0.00 | 0.00 | 100 | 1007.1 |
| 20260509042504 | 15 | 194 | 11.3 | 22.5 | 0.00 | 0.00 | 0.00 | 100 | 1007.3 |
| 20260509042004 | 15 | 194 | 12.9 | 19.3 | 0.00 | 0.00 | 0.00 | 100 | 1007.4 |
| 20260509041503 | 15 | 207 | 11.3 | 19.3 | 0.00 | 0.00 | 0.00 | 100 | 1007.5 |
| 20260509040506 | 15 | 197 | 14.5 | 19.3 | 0.00 | 0.00 | 0.00 | 100 | 1007.5 |
| 20260509035505 | 15 | 206 | 8.0 | 19.3 | 0.00 | 0.00 | 0.00 | 100 | 1007.7 |
| 20260509035006 | 15 | 209 | 9.7 | 19.3 | 0.00 | 0.00 | 0.00 | 100 | 1007.8 |
| 20260509034505 | 15 | 210 | 11.3 | 19.3 | 0.00 | 0.00 | 0.00 | 100 | 1007.8 |
| 20260509034005 | 15 | 215 | 9.7 | 19.3 | 0.00 | 0.00 | 0.00 | 100 | 1007.7 |
| 20260509031006 | 16 | 201 | 14.5 | 22.5 | 0.00 | 0.00 | 0.00 | 100 | 1007.2 |
| 20260509030006 | 16 | 198 | 17.7 | 29.0 | 0.00 | 0.00 | 0.00 | 100 | 1007.1 |
| 20260509025005 | 16 | 190 | 19.3 | 32.2 | 0.00 | 0.00 | 0.00 | 100 | 1006.8 |
| 20260509023506 | 16 | 193 | 16.1 | 25.7 | 0.00 | 0.00 | 0.00 | 100 | 1006.6 |
| 20260509023005 | 16 | 186 | 16.1 | 24.1 | 0.00 | 0.00 | 0.00 | 100 | 1006.5 |
| 20260509022505 | 16 | 188 | 11.3 | 20.9 | 0.00 | 0.00 | 0.00 | 100 | 1006.3 |
| 20260509021012 | 17 | 201 | 11.3 | 19.3 | 0.00 | 0.00 | 0.00 | 100 | 1006.4 |
| 20260509015506 | 17 | 189 | 11.3 | 16.1 | 0.00 | 0.00 | 0.00 | 100 | 1006.2 |
| 20260509015006 | 17 | 193 | 11.3 | 19.3 | 0.00 | 0.00 | 0.00 | 100 | 1006.2 |
| 20260509014506 | 17 | 196 | 12.9 | 19.3 | 0.00 | 0.00 | 0.00 | 100 | 1006.1 |
| 20260509013505 | 18 | 194 | 12.9 | 20.9 | 0.00 | 0.00 | 0.00 | 100 | 1006.2 |
| 20260509012005 | 18 | 199 | 11.3 | 20.9 | 0.00 | 0.00 | 0.00 | 100 | 1006.0 |
| 20260509011506 | 18 | 193 | 12.9 | 20.9 | 0.00 | 0.00 | 0.00 | 100 | 1006.1 |
| 20260509010505 | 19 | 200 | 11.3 | 19.3 | 0.00 | 0.00 | 0.00 | 100 | 1006.1 |
| 20260509010005 | 19 | 188 | 11.3 | 19.3 | 0.00 | 0.00 | 0.00 | 100 | 1006.0 |
| 20260509005505 | 20 | 196 | 11.3 | 20.9 | 0.00 | 0.00 | 0.00 | 100 | 1006.2 |
| 20260509004506 | 20 | 192 | 11.3 | 22.5 | 0.00 | 0.00 | 0.00 | 100 | 1006.2 |
| 20260509004006 | 21 | 193 | 16.1 | 20.9 | 0.00 | 0.00 | 0.00 | 100 | 1006.2 |
| 20260509003006 | 21 | 218 | 8.0 | 14.5 | 0.00 | 0.00 | 0.00 | 100 | 1006.2 |
| 20260509002505 | 21 | 212 | 9.7 | 16.1 | 0.00 | 0.00 | 0.00 | 100 | 1006.4 |
| 20260509002006 | 21 | 224 | 9.7 | 19.3 | 0.00 | 0.00 | 0.00 | 100 | 1006.4 |
| 20260509001505 | 22 | 210 | 11.3 | 19.3 | 0.00 | 0.00 | 0.00 | 100 | 1006.4 |
| 20260508235505 | 22 | 235 | 9.7 | 20.9 | 0.00 | 0.00 | 0.00 | 100 | 1006.4 |
| 20260508235005 | 22 | 227 | 12.9 | 25.7 | 0.00 | 0.00 | 0.00 | 100 | 1006.3 |
| 20260508234506 | 22 | 237 | 14.5 | 22.5 | 0.00 | 0.00 | 0.00 | 100 | 1006.3 |
| 20260508231005 | 22 | 193 | 12.9 | 24.1 | 0.00 | 0.00 | 0.00 | 100 | 1006.6 |
| 20260508230005 | 22 | 259 | 17.7 | 25.7 | 0.00 | 0.00 | 0.00 | 100 | 1006.7 |
| 20260508225005 | 22 | 274 | 11.3 | 19.3 | 0.00 | 0.00 | 0.00 | 100 | 1006.9 |
| 20260508224005 | 23 | 261 | 20.9 | 32.2 | 0.00 | 0.00 | 0.00 | 100 | 1006.9 |
| 20260508222506 | 23 | 219 | 11.3 | 24.1 | 0.00 | 0.00 | 0.00 | 100 | 1007.1 |
| 20260508222005 | 23 | 280 | 14.5 | 19.3 | 0.00 | 0.00 | 0.00 | 100 | 1007.0 |
| 20260508215505 | 23 | 276 | 14.5 | 25.7 | 0.00 | 0.00 | 0.00 | 100 | 1007.0 |
| 20260508215005 | 23 | 249 | 19.3 | 24.1 | 0.00 | 0.00 | 0.00 | 100 | 1007.1 |
| 20260508214505 | 23 | 262 | 9.7 | 16.1 | 0.00 | 0.00 | 0.00 | 100 | 1007.1 |
| 20260508213005 | 23 | 202 | 4.8 | 14.5 | 0.00 | 0.00 | 0.00 | 100 | 1007.3 |
| 20260508212505 | 23 | 260 | 12.9 | 20.9 | 0.00 | 0.00 | 0.00 | 100 | 1007.5 |
| 20260508212005 | 23 | 253 | 14.5 | 22.5 | 0.00 | 0.00 | 0.00 | 100 | 1007.5 |
| 20260508211505 | 23 | 267 | 19.3 | 27.4 | 0.00 | 0.00 | 0.00 | 100 | 1007.5 |
| 20260508210005 | 23 | 219 | 3.2 | 12.9 | 0.00 | 0.00 | 0.00 | 100 | 1007.8 |
| 20260508204005 | 23 | 236 | 8.0 | 22.5 | 0.00 | 0.00 | 0.00 | 100 | 1008.0 |